| time (UTC) | temp F | wind direction | speed MPH | gust MPH | rain 1hr in | rain 24hr in | rain mn in | humidity % | barometer mb |
| 20260506193056 | 82 | 157 | 4.0 | 10.0 | 0.00 | 0.00 | 0.00 | 21 | 1012.6 |
| 20260506191559 | 82 | 98 | 2.0 | 12.0 | 0.00 | 0.00 | 0.00 | 23 | 1012.8 |
| 20260506190054 | 81 | 62 | 3.0 | 14.0 | 0.00 | 0.00 | 0.00 | 26 | 1012.9 |
| 20260506184556 | 81 | 49 | 4.0 | 12.0 | 0.00 | 0.00 | 0.00 | 23 | 1013.3 |
| 20260506183055 | 80 | 308 | 7.0 | 17.0 | 0.00 | 0.00 | 0.00 | 22 | 1013.2 |
| 20260506181603 | 79 | 303 | 6.0 | 15.0 | 0.00 | 0.00 | 0.00 | 23 | 1013.6 |
| 20260506180054 | 79 | 321 | 6.0 | 13.0 | 0.00 | 0.00 | 0.00 | 23 | 1014.0 |
| 20260506174549 | 78 | 304 | 7.0 | 13.0 | 0.00 | 0.00 | 0.00 | 24 | 1014.2 |
| 20260506173116 | 78 | 323 | 8.0 | 14.0 | 0.00 | 0.00 | 0.00 | 23 | 1014.5 |
| 20260506171556 | 77 | 302 | 8.0 | 16.0 | 0.00 | 0.00 | 0.00 | 23 | 1014.5 |
| 20260506170105 | 77 | 329 | 7.0 | 17.0 | 0.00 | 0.00 | 0.00 | 24 | 1014.5 |
| 20260506164553 | 78 | 38 | 8.0 | 15.0 | 0.00 | 0.00 | 0.00 | 23 | 1014.5 |
| 20260506163057 | 77 | 303 | 8.0 | 12.0 | 0.00 | 0.00 | 0.00 | 24 | 1014.5 |
| 20260506161548 | 76 | 331 | 9.0 | 14.0 | 0.00 | 0.00 | 0.00 | 24 | 1014.3 |
| 20260506160052 | 75 | 327 | 10.0 | 13.0 | 0.00 | 0.00 | 0.00 | 24 | 1014.2 |
| 20260506154609 | 75 | 310 | 9.0 | 16.0 | 0.00 | 0.00 | 0.00 | 24 | 1014.2 |
| 20260506153053 | 74 | 303 | 11.0 | 14.0 | 0.00 | 0.00 | 0.00 | 25 | 1014.0 |
| 20260506151553 | 73 | 306 | 10.0 | 15.0 | 0.00 | 0.00 | 0.00 | 26 | 1014.0 |
| 20260506150055 | 72 | 322 | 8.0 | 12.0 | 0.00 | 0.00 | 0.00 | 28 | 1014.0 |
| 20260506144556 | 72 | 305 | 9.0 | 12.0 | 0.00 | 0.00 | 0.00 | 28 | 1014.0 |
| 20260506143055 | 71 | 306 | 9.0 | 13.0 | 0.00 | 0.00 | 0.00 | 29 | 1013.9 |
| 20260506141549 | 70 | 319 | 8.0 | 12.0 | 0.00 | 0.00 | 0.00 | 31 | 1013.8 |
| 20260506140053 | 68 | 298 | 7.0 | 11.0 | 0.00 | 0.00 | 0.00 | 34 | 1013.5 |
| 20260506134550 | 67 | 306 | 8.0 | 11.0 | 0.00 | 0.00 | 0.00 | 36 | 1013.2 |
| 20260506133105 | 65 | 302 | 5.0 | 7.0 | 0.00 | 0.00 | 0.00 | 41 | 1013.0 |
| 20260506131553 | 64 | 308 | 5.0 | 7.0 | 0.00 | 0.00 | 0.00 | 44 | 1012.8 |
| 20260506130119 | 62 | 304 | 2.0 | 3.0 | 0.00 | 0.00 | 0.00 | 46 | 1012.6 |
| 20260506124554 | 62 | 0 | 0.0 | 0.0 | 0.00 | 0.00 | 0.00 | 47 | 1012.4 |
| 20260506123050 | 62 | 0 | 0.0 | 0.0 | 0.00 | 0.00 | 0.00 | 46 | 1012.2 |
| 20260506121549 | 62 | 0 | 0.0 | 0.0 | 0.00 | 0.00 | 0.00 | 46 | 1011.7 |
| 20260506120053 | 62 | 0 | 0.0 | 1.0 | 0.00 | 0.00 | 0.00 | 46 | 1011.7 |
| 20260506114549 | 63 | 328 | 1.0 | 3.0 | 0.00 | 0.00 | 0.00 | 44 | 1011.6 |
| 20260506113050 | 64 | 300 | 1.0 | 2.0 | 0.00 | 0.00 | 0.00 | 45 | 1011.5 |
| 20260506111553 | 64 | 329 | 1.0 | 3.0 | 0.00 | 0.00 | 0.00 | 45 | 1011.4 |
| 20260506110051 | 65 | 333 | 2.0 | 3.0 | 0.00 | 0.00 | 0.00 | 46 | 1011.4 |
| 20260506104610 | 65 | 296 | 3.0 | 6.0 | 0.00 | 0.00 | 0.00 | 46 | 1011.2 |
| 20260506103048 | 66 | 290 | 3.0 | 4.0 | 0.00 | 0.00 | 0.00 | 45 | 1011.1 |
| 20260506101550 | 64 | 296 | 2.0 | 2.0 | 0.00 | 0.00 | 0.00 | 49 | 1010.9 |
| 20260506100051 | 65 | 275 | 1.0 | 2.0 | 0.00 | 0.00 | 0.00 | 48 | 1010.8 |
| 20260506094555 | 67 | 252 | 1.0 | 3.0 | 0.00 | 0.00 | 0.00 | 43 | 1010.7 |
| 20260506093052 | 67 | 227 | 2.0 | 3.0 | 0.00 | 0.00 | 0.00 | 43 | 1010.7 |
| 20260506091602 | 67 | 258 | 2.0 | 3.0 | 0.00 | 0.00 | 0.00 | 43 | 1010.5 |
| 20260506090050 | 67 | 236 | 3.0 | 7.0 | 0.00 | 0.00 | 0.00 | 42 | 1010.4 |
| 20260506084550 | 67 | 292 | 4.0 | 6.0 | 0.00 | 0.00 | 0.00 | 43 | 1010.6 |
| 20260506083052 | 67 | 265 | 3.0 | 6.0 | 0.00 | 0.00 | 0.00 | 42 | 1010.4 |
| 20260506081547 | 67 | 238 | 4.0 | 7.0 | 0.00 | 0.00 | 0.00 | 42 | 1010.6 |
| 20260506073050 | 68 | 259 | 4.0 | 7.0 | 0.00 | 0.00 | 0.00 | 42 | 1010.4 |
| 20260506071606 | 68 | 249 | 3.0 | 5.0 | 0.00 | 0.00 | 0.00 | 43 | 1010.7 |
| 20260506061547 | 70 | 0 | 0.0 | 0.0 | 0.00 | 0.00 | 0.00 | 34 | 1010.5 |
| 20260506044605 | 68 | 0 | 0.0 | 1.0 | 0.00 | 0.00 | 0.00 | 42 | 1010.2 |
| 20260506043056 | 69 | 44 | 0.0 | 4.0 | 0.00 | 0.00 | 0.00 | 40 | 1010.1 |
| 20260506041554 | 70 | 155 | 4.0 | 9.0 | 0.00 | 0.00 | 0.00 | 37 | 1009.6 |
| 20260506040054 | 71 | 0 | 0.0 | 0.0 | 0.00 | 0.00 | 0.00 | 37 | 1009.1 |
| 20260506034557 | 68 | 105 | 0.0 | 1.0 | 0.00 | 0.00 | 0.00 | 44 | 1008.8 |
| 20260506033052 | 70 | 0 | 0.0 | 3.0 | 0.00 | 0.00 | 0.00 | 37 | 1008.8 |
| 20260506031557 | 72 | 0 | 0.0 | 1.0 | 0.00 | 0.00 | 0.00 | 34 | 1008.8 |
| 20260506030054 | 72 | 0 | 0.0 | 0.0 | 0.00 | 0.00 | 0.00 | 33 | 1008.6 |
| 20260506024552 | 74 | 146 | 1.0 | 2.0 | 0.00 | 0.00 | 0.00 | 33 | 1008.5 |
| 20260506023055 | 76 | 0 | 0.0 | 0.0 | 0.00 | 0.00 | 0.00 | 27 | 1008.2 |
| 20260506021557 | 77 | 0 | 0.0 | 0.0 | 0.00 | 0.00 | 0.00 | 25 | 1008.0 |
| 20260506020050 | 78 | 0 | 0.0 | 1.0 | 0.00 | 0.00 | 0.00 | 23 | 1007.9 |
| 20260506014547 | 78 | 252 | 0.0 | 1.0 | 0.00 | 0.00 | 0.00 | 23 | 1007.8 |
| 20260506013048 | 80 | 0 | 0.0 | 2.0 | 0.00 | 0.00 | 0.00 | 24 | 1007.9 |
| 20260506011552 | 81 | 164 | 0.0 | 1.0 | 0.00 | 0.00 | 0.00 | 25 | 1007.8 |
| 20260506010057 | 83 | 157 | 0.0 | 1.0 | 0.00 | 0.00 | 0.00 | 22 | 1007.9 |
| 20260506004548 | 84 | 0 | 0.0 | 1.0 | 0.00 | 0.00 | 0.00 | 20 | 1007.8 |
| 20260506003048 | 84 | 225 | 0.0 | 1.0 | 0.00 | 0.00 | 0.00 | 20 | 1007.8 |
| 20260506001604 | 84 | 166 | 1.0 | 4.0 | 0.00 | 0.00 | 0.00 | 18 | 1007.8 |
| 20260506000053 | 84 | 229 | 2.0 | 6.0 | 0.00 | 0.00 | 0.00 | 18 | 1007.8 |
| 20260505234608 | 83 | 284 | 3.0 | 10.0 | 0.00 | 0.00 | 0.00 | 18 | 1007.8 |
| 20260505233049 | 83 | 277 | 4.0 | 8.0 | 0.00 | 0.00 | 0.00 | 19 | 1008.0 |
| 20260505231548 | 83 | 294 | 8.0 | 14.0 | 0.00 | 0.00 | 0.00 | 18 | 1008.2 |
| 20260505230048 | 83 | 294 | 10.0 | 17.0 | 0.00 | 0.00 | 0.00 | 19 | 1008.2 |
| 20260505224547 | 83 | 291 | 12.0 | 17.0 | 0.00 | 0.00 | 0.00 | 18 | 1008.6 |
| 20260505223104 | 83 | 298 | 15.0 | 18.0 | 0.00 | 0.00 | 0.00 | 18 | 1008.8 |
| 20260505221547 | 83 | 298 | 13.0 | 25.0 | 0.00 | 0.00 | 0.00 | 18 | 1008.8 |
| 20260505220050 | 83 | 281 | 14.0 | 21.0 | 0.00 | 0.00 | 0.00 | 16 | 1008.9 |
| 20260505214555 | 83 | 290 | 14.0 | 21.0 | 0.00 | 0.00 | 0.00 | 18 | 1009.2 |
| 20260505213054 | 82 | 294 | 16.0 | 23.0 | 0.00 | 0.00 | 0.00 | 17 | 1009.3 |
| 20260505211605 | 84 | 305 | 13.0 | 20.0 | 0.00 | 0.00 | 0.00 | 16 | 1009.4 |
| 20260505210056 | 84 | 294 | 13.0 | 19.0 | 0.00 | 0.00 | 0.00 | 18 | 1009.3 |
| 20260505204552 | 85 | 298 | 14.0 | 22.0 | 0.00 | 0.00 | 0.00 | 18 | 1009.6 |
| 20260505203116 | 84 | 296 | 14.0 | 19.0 | 0.00 | 0.00 | 0.00 | 20 | 1009.6 |
| 20260505201551 | 84 | 278 | 11.0 | 17.0 | 0.00 | 0.00 | 0.00 | 22 | 1009.7 |
| 20260505200050 | 83 | 291 | 13.0 | 20.0 | 0.00 | 0.00 | 0.00 | 21 | 1009.8 |
| 20260505194554 | 83 | 299 | 11.0 | 19.0 | 0.00 | 0.00 | 0.00 | 23 | 1010.0 |